This is the latest recevied weather packets stored in our database for station/object WC4PEM-7. If no packets are shown the sender has not sent any weather packets the latest 10 day(s).
| Time | Temp. | Humidity | Pressure | Rain* | Wind** | Luminosity | Snow |
|---|---|---|---|---|---|---|---|
| 1777829621 | 22.78° C | 74% | 1017.7 hPa | 0 mm | - | - | - |
| 1777829467 | 22.78° C | 71% | 1017.8 hPa | 0 mm | - | - | - |
| 1777829321 | 22.78° C | 71% | 1017.8 hPa | 0 mm | - | - | - |
| 1777829118 | 22.78° C | 75% | 1017.8 hPa | 0 mm | - | - | - |
| 1777829021 | 23.33° C | 74% | 1017.8 hPa | 0 mm | - | - | - |
| 1777828721 | 22.78° C | 75% | 1017.8 hPa | 0 mm | - | - | - |
| 1777828421 | 22.78° C | 73% | 1018 hPa | 0 mm | - | - | - |
| 1777828278 | 22.78° C | 75% | 1017.9 hPa | 0 mm | - | - | - |
| 1777828121 | 22.78° C | 74% | 1017.8 hPa | 0 mm | - | - | - |
| 1777827821 | 22.78° C | 75% | 1017.9 hPa | 0 mm | - | - | - |
| 1777827521 | 22.22° C | 76% | 1018 hPa | 0 mm | - | - | - |
| 1777827397 | 22.22° C | 75% | 1018 hPa | 0 mm | - | - | - |
| 1777827221 | 22.22° C | 75% | 1018 hPa | 0 mm | - | - | - |
| 1777827122 | 22.22° C | 74% | 1018 hPa | 0 mm | - | - | - |
| 1777826921 | 22.22° C | 76% | 1018.1 hPa | 0 mm | - | - | - |
| 1777826621 | 22.22° C | 75% | 1018.2 hPa | 0 mm | - | - | - |
| 1777826321 | 22.22° C | 74% | 1018 hPa | 0 mm | - | - | - |
| 1777826021 | 22.22° C | 75% | 1018.1 hPa | 0 mm | - | - | - |
| 1777825907 | 21.67° C | 75% | 1018 hPa | 0 mm | - | - | - |
| 1777825721 | 21.67° C | 75% | 1018 hPa | 0 mm | - | - | - |
| 1777825421 | 22.22° C | 75% | 1018.1 hPa | 0 mm | - | - | - |
| 1777825121 | 21.67° C | 77% | 1018.1 hPa | 0 mm | - | - | - |
| 1777824822 | 21.67° C | 78% | 1018.2 hPa | 0 mm | - | - | - |
| 1777824521 | 21.67° C | 77% | 1018.2 hPa | 0 mm | - | - | - |
| 1777824499 | 21.11° C | 77% | 1018.1 hPa | 0 mm | - | - | - |
* Rain latest hour (hover to see other rain measurements)
** Current wind speed in m/s (hover to see current wind gust speed)